Regional Weather Roundup
Issued by NWS

Home | Current Version | Previous Version | Text Only | Print | Product List | Glossary Off
Versions: 1 2 3 4 5 6 7 8 9 10 11 12 13 14 15 16 17 18 19 20 21 22 23 24 25 26 27

000
ASUS45 KBOU 231107
RWRCO

WEATHER ROUNDUP FOR COLORADO
NATIONAL WEATHER SERVICE DENVER/BOULDER CO
500 AM MDT SAT JUL 23 2016

NOTE: "FAIR" INDICATES FEW OR NO CLOUDS BELOW 12000 FEET WITH NO
SIGNIFICANT WEATHER AND/OR OBSTRUCTIONS TO VISIBILITY.

COZ001>005-013-030-031-231200-
...NORTHWEST COLORADO...

CITY           SKY/WX    TMP DP  RH WIND       PRES   REMARKS
CRAIG          FAIR      51  44  77 CALM      30.25S
HAYDEN         FAIR      57  43  58 E10       30.28S
MEEKER         FAIR      56  49  77 NE8       30.26F
MOUNT WERNER   NOT AVBL
STEAMBOAT SPGS FAIR      53  45  74 CALM      30.31F
WALDEN         FAIR      50  39  66 E7        30.38F
$$

COZ006>008-011-231200-
...WEST CENTRAL VALLEYS...

CITY           SKY/WX    TMP DP  RH WIND       PRES   REMARKS
GRAND JUNCTION FAIR      68  54  60 SE16      30.14S
MONTROSE       FAIR      59  50  72 S6        30.25F
EAGLE          FAIR      55  48  76 CALM      30.33F
RIFLE          FAIR      61  51  70 E3        30.22S
DELTA          FAIR      62  55  78 NE3       30.21F
NUCLA          FAIR      59  50  72 SE5       30.29S
$$

COZ017>023-064>068-231200-
...SOUTHWEST COLORADO...

CITY           SKY/WX    TMP DP  RH WIND       PRES   REMARKS
DURANGO        FAIR      61  47  59 CALM      30.29F
CORTEZ         FAIR      58  47  66 NE5       30.24F
PAGOSA SPRINGS FAIR      61  46  56 CALM      30.37F
TELLURIDE      FAIR      52  45  77 SE8       30.49F
WOLF CREEK PAS FAIR      48  41  76 W8        30.71S
$$

COZ009-010-012-014-032>034-037-058>063-231200-
...CENTRAL COLORADO...

CITY           SKY/WX    TMP DP  RH WIND       PRES   REMARKS
ASPEN          FAIR      50  45  83 SW6       30.37F
BUENA VISTA    FAIR      55  44  68 NW6       30.37F
COPPER MTN     FAIR      54  37  54 CALM      30.69S
BERTHOUD PASS  MOCLDY    43  30  61 NW23      30.69F
COTTONWOOD PAS FAIR      59  41  51 W14G20    30.50F
GUNNISON       FAIR      48  45  87 SW3       30.44S
KREMMLING      FAIR      50  45  81 CALM      30.39S
LEADVILLE      FAIR      45  40  82 NE3       30.51F
MONARCH PASS   FOG       45  43  93 W22       30.76F VSB 1/4
SALIDA         FAIR      58  47  66 N10       30.42S
SUNLIGHT       MOCLDY    57  37  47 CALM      30.62S
WILKERSON PASS FAIR      52  36  54 NW9       30.62F
$$

COZ069>075-231200-
...SAN LUIS VALLEY/SANGRE DE CRISTO MOUNTAINS...

CITY           SKY/WX    TMP DP  RH WIND       PRES   REMARKS
ALAMOSA        FAIR      54  48  80 SE3       30.34F
LA VETA PASS   FAIR      52  41  66 SW8G20    30.50F
SAGUACHE       FAIR      59  46  63 NW13      30.38F
$$

COZ035-036-038>040-231200-
...NORTHERN COLORADO FRONT RANGE...

CITY           SKY/WX    TMP DP  RH WIND       PRES   REMARKS
DENVER INTL AP FAIR      69  48  47 SW12      30.09F
DMNS CITY PARK   N/A     67  50  54 S3        30.10S
AURORA         PTCLDY    67  47  49 S8        30.12F
FRONT RANGE AP NOT AVBL
ERIE MUNI ARPT FAIR      59  54  83 CALM      30.08S
BOULDER MUN AP FAIR      63  52  67 CALM      30.08F
CENTENNIAL     FAIR      66  44  45 SW6       30.14S
BROOMFIELD     FAIR      72  41  33 NW5       30.12S
LONGMONT       FAIR      63  54  73 CALM      30.09S
$$

COZ041-046-047-076>085-087-088-231200-
...PIKES PEAK/PALMER DIVIDE AND SOUTHERN FOOTHILLS...

CITY           SKY/WX    TMP DP  RH WIND       PRES   REMARKS
COLO. SPRINGS  FAIR      70  45  40 N10       30.17S
A. F. ACADEMY  FAIR      58  46  63 N7        30.19F
SCHRIEVER AFB  NOT AVBL
ELLICOTT       FAIR     N/A N/A N/A CALM      30.14S
FALCON         NOT AVBL
FORT CARSON    FAIR      66  44  45 W3        30.12F
LIMON          FAIR      63  50  62 W7        30.08F
MONUMENT HILL  FAIR      55  46  71 W7        30.25S
TRINIDAD       NOT AVBL
$$

COZ042>045-048>051-090-091-231200-
...NORTHEAST COLORADO...

CITY           SKY/WX    TMP DP  RH WIND       PRES   REMARKS
GREELEY ARPT   FAIR      64  61  88 CALM      30.05F
AKRON          FAIR      69  60  73 S10       30.03F
BURLINGTON     FAIR      67  60  78 NE6       30.00S
WRAY           NOT AVBL
STERLING       FAIR      68  64  88 CALM      29.98S
HOLYOKE        FAIR      73  63  68 W5        29.96R
FORT MORGAN    FAIR      64  60  88 W5        30.04S
$$

COZ086-089-092>099-231200-
...SOUTHEAST COLORADO...

CITY           SKY/WX    TMP DP  RH WIND       PRES   REMARKS
PUEBLO         FAIR      68  55  63 NW8       30.04S
LA JUNTA       FAIR      73  51  46 W10       29.99S
LAMAR          FAIR      77  52  41 SW9       29.92F
SPRINGFIELD      N/A     71  48  43 S6        30.02F
$$




USA.gov is the U.S. government's official web portal to all federal, state and local government web resources and services.